STARLINK-31334, 59157

Orbit data source: Space-Track

STARLINK-31334, 59157 is a payload satellite owned by SpaceX/Seattle (US) in LEO that was launched on Mon, 04 Mar 2024 UTC via an FALCON 9 launch vehicle from the Air Force Eastern Test Range (AFETR). Payload-class satellites include a variety of spacecraft equipped with specific instruments for various scientific and technological missions. These include communications satellites like Starlink; space stations such as the ISS; scientific satellites like the Hubble; Earth observation satellites from companies like Planet Labs, Umbra, and HawkEye 360; GPS; miniature CubeSats for education and research; and military/defense satellites.

Loading next visibility...
Identifier
59157, 2024-044F
Orbit
LEO
Country
Flag of USUS
Related business
Manufacturer
SpaceX/Seattle
Mission
Operational Commercial Communications
Bus & Motor
STARLINK V2M, Unknown motor
Mass
730 kg wet, ~700 kg dry
Launch date (UTC)
2024-03-04 (2 years ago)
Launch vehicle
FALCON 9
Launch site
Air Force Eastern Test Range (AFETR)
Object type
Payload
Rocket body
Debris
Shape & HBR
Box + 2 Pan, 17.7 m
Radar Cross Section
33.884 m², Large (>1 m²)

Expand to show TLE details & history
Last TLE update: 3 days ago

TLE from 3 days ago
0 STARLINK-31334
1 59157U 24044F   26170.68836744 -.00000393  00000-0 -47594-5 0  9994
2 59157  43.0020 254.5509 0001447 252.4903 107.5791 15.27586656129125
Epoch: 2026-06-19T16:31Z
TLE epoch observation values (Epoch: 2026-06-19T16:31:14.946Z)
Latitude
-0°
Longitude
98.82487°
Altitude
483.105 km
Speed
7.626 km/s
True Right ascension
16h 58m 12s
True Declination
0° 00' 00"
Sunlit
Object was in full shadow at epoch
Visualization orbit readout
Latitude
Unknown
Longitude
Unknown
Altitude
Unknown
Speed
Unknown
Apparent Right ascension
Unknown
Apparent Declination
Unknown
Sunlit
N/A
Visualization observer readout
Local Sidereal Time
00:50:45
Azimuth
Unknown
Elevation
Unknown
Doppler factor
Unknown
Orbital elements
Apogee altitude
485.967 km
Perigee altitude
483.981 km
Semi-major axis
6,863.111 km
Eccentricity
0.00014
Inclination
43.002°
RAAN
254.5509°
Arg. of periapsis
252.4903°
True anomaly
107.59491°
Mean anomaly
107.5791°
Eccentric anomaly
107.587°
Mean motion
3.81735 °/min
Orbital period
94.31 mins
BSTAR
-0.0000047594
Loading maneuver chart data...
Computing Atmospheric mass density...
Loading historical data...
Loading historical data...
Loading historical data...
Loading historical data...
Loading historical data...
Loading historical data...
Loading historical data...

Documentation

Showing up to 5 results
|